Regional Weather Roundup
Issued by NWS

Home | Current Version | Previous Version | Text Only | Print | Product List | Glossary Off
Versions: 1 2 3 4 5 6 7 8 9 10 11 12 13 14 15 16 17 18 19 20 21 22 23 24 25 26 27 28 29 30 31 32 33 34 35 36 37 38 39 40 41 42 43 44 45 46 47 48 49 50

000
ASUS45 KCYS 010510
RWRWY

WYOMING REGIONAL WEATHER ROUNDUP
NATIONAL WEATHER SERVICE CHEYENNE WY
1100 PM MDT SAT APR 30 2016

NOTE:  "FAIR" INDICATES FEW OR NO CLOUDS BELOW 12,000 FEET
WITH NO SIGNIFICANT WEATHER AND/OR OBSTRUCTIONS TO VISIBILITY.

WYZ001-010600-
YELLOWSTONE NATIONAL PARK

CITY           SKY/WX    TMP DP  RH WIND       PRES   REMARKS
LK YELLOWSTONE   N/A     32  23  69 VRB3      30.28R
W YELLOWSTONE  NOT AVBL

$$
WYZ002>013-054>058-071-098>099-010600-
NORTHERN WYOMING

CITY           SKY/WX    TMP DP  RH WIND       PRES   REMARKS
JACKSON        FAIR      39  27  60 N14G21    30.18R WCI  31
CODY           CLOUDY    41  30  65 NW9       30.29R
GREYBULL       MOCLDY    44  36  73 CALM      30.26R
WORLAND        CLOUDY    44  38  79 SW10      30.25R
SHERIDAN       CLOUDY    42  36  79 SE3       30.30R
BUFFALO          N/A    N/A N/A N/A MISG      30.29S
GILLETTE       FAIR      37  30  75 VRB3      30.27R
HULETT         CLOUDY    41  32  70 N3        30.27S
NEWCASTLE      FAIR      34  28  80 W6        30.24R WCI  29

$$
WYZ014>020-022>026-101>103-010600-
CENTRAL WYOMING

CITY           SKY/WX    TMP DP  RH WIND       PRES   REMARKS
BIG PINEY      FAIR      30  25  81 SW5       30.21R WCI  25
PINEDALE       FAIR      34  30  86 N6        30.21R WCI  29
DUBOIS         NOT AVBL
LANDER         CLOUDY    37  33  85 SW6       30.26R WCI  32
RIVERTON       CLOUDY    37  33  85 NW9       30.28R WCI  30
CASPER         MOCLDY    35  31  85 N13       30.24R WCI  26
DOUGLAS        FAIR      36  31  82 NW5       30.24R WCI  32

$$
WYZ021-027>030-104>119-010600-
SOUTHERN WYOMING

CITY           SKY/WX    TMP DP  RH WIND       PRES   REMARKS
EVANSTON       CLOUDY    35  27  72 E20G26    30.14R WCI  24
KEMMERER         N/A     32  28  86 E20G25    30.18S WCI  20
FORT BRIDGER   PTCLDY    32  32 100 E16       30.20R WCI  21
ROCK SPRINGS   FAIR      34  26  72 E22       30.19R WCI  22
DIXON          FAIR      35  24  64 NE7       30.16S WCI  29
RAWLINS        MOCLDY    31  27  85 NE9       30.21R WCI  23
SARATOGA       CLOUDY    32  27  80 NE9       30.20R WCI  24
LARAMIE        LGT SNOW  27  25  92 NW8       30.19S FOG     WCI  19
CHEYENNE       LGT SNOW  31  29  92 N14G26    30.18R FOG     WCI  21
TORRINGTON     CLOUDY    37  33  85 N7        30.20R WCI  32
PINE BLUFFS    FLURRIES  32  32 100 N20       30.18R WCI  20

$$



USA.gov is the U.S. government's official web portal to all federal, state and local government web resources and services.